Regional Weather Roundup
Issued by NWS Upton, NY

Current Version | Previous Version | Graphics & Text | Print | Product List | Glossary Off
Versions: 1 2 3 4 5 6 7 8 9 10 11 12 13 14 15 16 17 18 19 20 21 22 23 24 25 26 27 28 29 30 31 32 33 34 35 36 37 38 39 40 41 42 43 44 45 46 47 48 49 50

000
ASUS41 KOKX 241508
RWROKX

REGIONAL WEATHER ROUNDUP
NATIONAL WEATHER SERVICE NEW YORK NY
1100 AM EDT MON APR 24 2017

NOTE: "FAIR" INDICATES FEW OR NO CLOUDS BELOW 12,000 FEET WITH NO
SIGNIFICANT WEATHER AND/OR OBSTRUCTIONS TO VISIBILITY.

NYZ071-072-176-178-NJZ106-104-241600-
NEW YORK CITY METRO AREA

CITY           SKY/WX    TMP DP  RH WIND       PRES   REMARKS
Central Park   CLOUDY    57  42  57 VRB3      30.20S
Wall St Helipt CLOUDY    56  44  64 NE6       30.19R
Bronx Bot Gard   N/A     55  39  54 CALM      30.18F
LaGuardia APRT CLOUDY    56  43  61 NE6       30.17F
Kennedy INTL   CLOUDY    55  42  61 SE7       30.19S
Breezy Point     N/A     50 N/A N/A E7          N/A
Newark/Liberty CLOUDY    55  44  66 CALM      30.18R
Teterboro      CLOUDY    57  45  64 VRB3      30.16F
$$

NYZ177-179-078>081-241600-
LONG ISLAND NEW YORK

CITY           SKY/WX    TMP DP  RH WIND       PRES   REMARKS
Jones Beach      N/A     50 N/A N/A E6          N/A
Matinecock PT  NOT AVBL
Farmingdale    CLOUDY    55  42  61 SE5       30.18S
MacArthur/ISP  CLOUDY    56  38  50 E5        30.18R
Shirley        CLOUDY    55  41  59 SE6       30.19S
Mt Sinai Harb    N/A    N/A N/A N/A MISG        N/A
Westhampton    CLOUDY    53  40  61 SE6       30.21R
East Hampton     N/A     51  40  67 SE3       30.20R
Montauk          N/A     52  40  63 S3        30.22R
$$

NYZ052-065-067-241600-
HUDSON VALLEY

CITY           SKY/WX    TMP DP  RH WIND       PRES   REMARKS
White Plains   CLOUDY    55  43  63 E6        30.17S
Larchmont Harb   N/A     48 N/A N/A NE7         N/A
Croton O-T Hud   N/A     50 N/A N/A CALM        N/A
Newburgh       PTSUNNY   61  46  59 VRB5      30.17F
Montgomery     CLOUDY    61  46  57 CALM      30.15F
Poughkeepsie   CLOUDY    61  44  53 VRB3      30.15F
Albany         PTSUNNY   60  40  47 VRB3      30.19F
$$

NJZ001-105-106-008-010-013-015-019>022-104-241600-
NEW JERSEY

CITY           SKY/WX    TMP DP  RH WIND       PRES   REMARKS
Newark/Liberty CLOUDY    55  44  66 CALM      30.18R
Teterboro      CLOUDY    57  45  64 VRB3      30.16F
Caldwell       CLOUDY    57  44  62 E5        30.18S
Somerville     CLOUDY    57  47  69 CALM      30.15F
Linden           N/A     55  43  64 CALM      30.18S
Sussex         MOSUNNY   55  48  77 CALM      30.16S
Andover          N/A     58  48  69 CALM      30.15F
Trenton        CLOUDY    53  42  66 E8        30.16S
Millville      CLOUDY    55  48  77 NE9       30.13R
Atlantic City  CLOUDY    55  47  74 NE16G22   30.14R
Wrightstown    CLOUDY    52  42  69 NE12      30.14R
Toms River     CLOUDY    52  46  80 NE12      30.17S
Belmar         CLOUDY    51  44  77 E8        30.19R
$$

PAZ047>061-062-071-241600-
EASTERN PENNSYLVANIA

CITY           SKY/WX    TMP DP  RH WIND       PRES   REMARKS
Philadelphia   LGT RAIN  53  42  66 NE8       30.15S
Allentown      CLOUDY    58  46  64 E5        30.15F
Scranton       CLOUDY    62  40  44 N6        30.12F
$$

CTZ002-004>006-009-010-012-RIZ004-006-007-MAZ004-011-015-241600-
SOUTHERN NEW ENGLAND
 IN CT

CITY           SKY/WX    TMP DP  RH WIND       PRES   REMARKS
Bradley INTL   CLOUDY    60  42  51 CALM      30.18F
Hartford       CLOUDY    59  45  59 SE6       30.18S
Danbury        MOSUNNY   57  45  64 CALM      30.18F
Wtrbury/Oxford PTSUNNY   57  41  54 CALM      30.18F
Bridgeport     CLOUDY    52  45  77 E6        30.19S
Meriden        MOSUNNY   59  44  57 E3        30.18F
New Haven      PTSUNNY   52  45  77 SE7       30.19S
Chester          N/A     59  43  55 CALM      30.18S
Groton         CLOUDY    52  43  71 S8        30.20S
Wilimantic     CLOUDY    62  42  47 VRB3      30.18F

 IN RI

CITY           SKY/WX    TMP DP  RH WIND       PRES   REMARKS
Providence     PTSUNNY   57  46  67 SE9       30.19S
Block Island   CLOUDY    52  41  66 S7        30.21R
Westerly       MOSUNNY   54  44  69 SE8       30.21R
 IN MA

CITY           SKY/WX    TMP DP  RH WIND       PRES   REMARKS
Boston         PTSUNNY   60  42  51 SE9       30.18R
Worcester      MOSUNNY   64  33  31 CALM      30.17R
Westfield      PTSUNNY   62  42  47 S5        30.17F
Provincetown   MOSUNNY   56  43  61 S13       30.20R
Nantucket      MOSUNNY   48  43  82 S8        30.22R
$$

ANZ330-335-338-340-345-350-353-355-241600-
COASTAL MARINE OBSERVATIONS


STATION/POSITION TIME  SKY/WX   TEMP    WIND        PRES    VSBY  WAVE
                                AIR SEA DIR/SP/G                  HT/PER
                 (UTC)          (F)     (DEG/KT/KT) (MB)    (MI)  (FT/S)
NY HARB ENTRANCE 1350            49 50   80/ 10/ 10 1021.8          3/11
20 S FIRE ISLAND 1450            48 48   70/  8/ 10 1021.9          3/11
GREAT SOUTH BAY  1430            50 56  100/  6/  8   N/A
23 SSW MONTAUK P 1450            47 46                N/A
15 E BARNEGAT LI 1430               51                N/A           3/11
HUDSON CANYON    1350            48 47   70/ 14/ 16 1021.2          4/11
KINGS POINT      1448            49 47   50/  5/  7 1021.8
EXECUTION ROCKS  NOT AVBL
CENTRAL LI SOUND 1430            48      40/  2/  4   N/A           0
EASTERN LI SOUND NOT AVBL
ROBBINS REEF     1448            52     190/  5/  6 1022.2
$$


>>>>>>>>>>>>>>>>>>>>>>>>>>>> KEY <<<<<<<<<<<<<<<<<<<<<<<<<<<
>                                                          <
>     SKY/WX - Sky Condition/Present Weather               <
>     TMP    - Temperature in Fahrenheit                   <
>     DP     - Dew Point in Fahrenheit                     <
>     RH     - Relative Humidity in Percent                <
>     WIND   - Direction (from) and Speed in MPH           <
>     PRES   - Mean Sea Level Pressure (inches of Hg)      <
>     WCI    - Wind Chill Index                            <
>     VSB    - VISIBILITY IN MILES                         <
>     HX     - HEAT INDEX                                  <
>     TC     - TEMPERATURE IN CELSIUS                      <
>     VRB    - VARIABLE WIND DIRECTION                     <
>                                                          <
>>>>>>>>>>>>>>>>>>>>>>>>>>>> KEY <<<<<<<<<<<<<<<<<<<<<<<<<<<



USA.gov is the U.S. government's official web portal to all federal, state and local government web resources and services.